When you browse on this site, cookies collect data to enhance your experience and personalize the content and advertising you see.
Visit our Privacy Policy to learn more. By continuing to use the site, you agree to this use of cookies and data.
  • In Portugal
  • List of Countries
  • For 7 days
  • Water Temperature
  • Weather Map
  • Weather Widgets
  • user-avatar
    Login

    Hourly Weather Qala i Naw

    Today, 2 June, Tuesday

    Time Temperature Precipitation Wind Pressure Humidity
    00:00 +22°C° 0 mm 0 mps 680 mmHg 18%
    01:00 +21°C° 0 mm 0 mps 680 mmHg 19%
    02:00 +21°C° 0 mm 0 mps 679 mmHg 19%
    03:00 +20°C° 0 mm 0 mps 679 mmHg 19%
    04:00 +19°C° 0 mm 0 mps 679 mmHg 20%
    05:00 +22°C° 0 mm 0 mps 680 mmHg 17%
    06:00 +24°C° 0 mm 0 mps 681 mmHg 14%
    07:00 +27°C° 0 mm 0 mps 681 mmHg 12%
    08:00 +30°C° 0 mm 1 mps 681 mmHg 11%
    09:00 +32°C° 0 mm 2 mps 682 mmHg 10%
    10:00 +34°C° 0 mm 3 mps 682 mmHg 9%
    11:00 +35°C° 0 mm 4 mps 682 mmHg 8%
    12:00 +36°C° 0 mm 5 mps 682 mmHg 7%
    13:00 +37°C° 0 mm 5 mps 682 mmHg 7%
    14:00 +38°C° 0 mm 6 mps 681 mmHg 7%
    15:00 +38°C° 0 mm 6 mps 681 mmHg 7%
    16:00 +38°C° 0 mm 6 mps 681 mmHg 7%
    17:00 +35°C° 0 mm 5 mps 681 mmHg 8%
    18:00 +34°C° 0 mm 4 mps 681 mmHg 9%
    19:00 +32°C° 0 mm 4 mps 680 mmHg 11%
    20:00 +29°C° 0 mm 3 mps 680 mmHg 12%
    21:00 +28°C° 0 mm 2 mps 680 mmHg 14%
    22:00 +26°C° 0 mm 1 mps 680 mmHg 15%
    23:00 +26°C° 0 mm 1 mps 679 mmHg 16%

    Tomorrow, 3 June, Wednesday

    Time Temperature Precipitation Wind Pressure Humidity
    00:00 +25°C° 0 mm 1 mps 679 mmHg 17%
    01:00 +24°C° 0 mm 1 mps 678 mmHg 17%
    02:00 +24°C° 0 mm 1 mps 678 mmHg 19%
    03:00 +21°C° 0 mm 0 mps 678 mmHg 20%
    04:00 +21°C° 0 mm 0 mps 678 mmHg 21%
    05:00 +23°C° 0 mm 0 mps 679 mmHg 18%
    06:00 +28°C° 0 mm 1 mps 679 mmHg 15%
    07:00 +30°C° 0 mm 1 mps 680 mmHg 13%
    08:00 +31°C° 0 mm 2 mps 680 mmHg 12%
    09:00 +34°C° 0 mm 3 mps 680 mmHg 11%
    10:00 +35°C° 0 mm 4 mps 680 mmHg 11%
    11:00 +36°C° 0 mm 5 mps 680 mmHg 10%
    12:00 +37°C° 0 mm 5 mps 680 mmHg 9%
    13:00 +39°C° 0 mm 6 mps 680 mmHg 9%
    14:00 +39°C° 0 mm 6 mps 680 mmHg 9%
    15:00 +39°C° 0 mm 6 mps 679 mmHg 9%
    16:00 +39°C° 0 mm 7 mps 679 mmHg 9%
    17:00 +38°C° 0 mm 6 mps 679 mmHg 9%
    18:00 +35°C° 0 mm 5 mps 679 mmHg 10%
    19:00 +33°C° 0 mm 4 mps 679 mmHg 11%
    20:00 +31°C° 0 mm 3 mps 679 mmHg 13%
    21:00 +29°C° 0 mm 2 mps 679 mmHg 15%
    22:00 +28°C° 0 mm 1 mps 679 mmHg 17%
    23:00 +27°C° 0 mm 1 mps 679 mmHg 18%

    Day after tomorrow, 4 June, Thursday

    Time Temperature Precipitation Wind Pressure Humidity
    00:00 +26°C° 0 mm 1 mps 678 mmHg 19%
    01:00 +23°C° 0 mm 0 mps 678 mmHg 20%
    02:00 +23°C° 0 mm 0 mps 678 mmHg 21%
    03:00 +22°C° 0 mm 0 mps 678 mmHg 21%
    04:00 +24°C° 0 mm 1 mps 678 mmHg 22%
    05:00 +26°C° 0 mm 1 mps 678 mmHg 19%
    06:00 +28°C° 0 mm 1 mps 679 mmHg 16%
    07:00 +31°C° 0 mm 1 mps 680 mmHg 13%
    08:00 +32°C° 0 mm 2 mps 680 mmHg 12%
    09:00 +35°C° 0 mm 2 mps 680 mmHg 10%
    10:00 +36°C° 0 mm 3 mps 681 mmHg 9%
    11:00 +37°C° 0 mm 5 mps 681 mmHg 8%
    12:00 +40°C° 0 mm 6 mps 681 mmHg 8%
    13:00 +41°C° 0 mm 8 mps 681 mmHg 7%
    14:00 +41°C° 0 mm 8 mps 681 mmHg 7%
    15:00 +41°C° 0 mm 8 mps 681 mmHg 7%
    16:00 +42°C° 0 mm 9 mps 681 mmHg 7%
    17:00 +39°C° 0 mm 7 mps 681 mmHg 8%
    18:00 +36°C° 0 mm 6 mps 681 mmHg 9%
    19:00 +34°C° 0 mm 4 mps 681 mmHg 10%
    20:00 +33°C° 0 mm 3 mps 681 mmHg 11%
    21:00 +31°C° 0 mm 3 mps 681 mmHg 13%
    22:00 +29°C° 0 mm 2 mps 681 mmHg 14%
    23:00 +28°C° 0 mm 2 mps 680 mmHg 15%

    5 June, Friday

    Time Temperature Precipitation Wind Pressure Humidity
    00:00 +28°C° 0 mm 2 mps 680 mmHg 15%
    01:00 +27°C° 0 mm 2 mps 680 mmHg 16%
    02:00 +27°C° 0 mm 2 mps 680 mmHg 16%
    03:00 +26°C° 0 mm 2 mps 679 mmHg 17%
    04:00 +26°C° 0 mm 2 mps 679 mmHg 17%
    05:00 +28°C° 0 mm 1 mps 680 mmHg 15%
    06:00 +30°C° 0 mm 1 mps 681 mmHg 13%
    07:00 +32°C° 0 mm 1 mps 681 mmHg 12%
    08:00 +35°C° 0 mm 2 mps 682 mmHg 11%
    09:00 +36°C° 0 mm 4 mps 682 mmHg 10%
    10:00 +39°C° 0 mm 5 mps 682 mmHg 8%
    11:00 +40°C° 0 mm 6 mps 682 mmHg 8%
    12:00 +41°C° 0 mm 8 mps 682 mmHg 8%
    13:00 +43°C° 0 mm 9 mps 682 mmHg 7%
    14:00 +43°C° 0 mm 9 mps 682 mmHg 7%
    15:00 +43°C° 0 mm 9 mps 681 mmHg 7%
    16:00 +43°C° 0 mm 9 mps 681 mmHg 7%
    17:00 +40°C° 0 mm 7 mps 681 mmHg 8%
    18:00 +38°C° 0 mm 6 mps 681 mmHg 9%
    19:00 +35°C° 0 mm 4 mps 681 mmHg 10%
    20:00 +34°C° 0 mm 4 mps 681 mmHg 11%
    21:00 +33°C° 0 mm 3 mps 681 mmHg 12%
    22:00 +30°C° 0 mm 2 mps 681 mmHg 13%
    23:00 +29°C° 0 mm 2 mps 680 mmHg 15%

    6 June, Saturday

    Time Temperature Precipitation Wind Pressure Humidity
    00:00 +28°C° 0 mm 1 mps 680 mmHg 16%
    01:00 +27°C° 0 mm 1 mps 680 mmHg 18%
    02:00 +26°C° 0 mm 1 mps 680 mmHg 18%
    03:00 +26°C° 0 mm 1 mps 679 mmHg 19%
    04:00 +25°C° 0 mm 1 mps 679 mmHg 20%
    05:00 +27°C° 0 mm 1 mps 680 mmHg 18%
    06:00 +30°C° 0 mm 1 mps 681 mmHg 15%
    07:00 +32°C° 0 mm 1 mps 681 mmHg 13%
    08:00 +34°C° 0 mm 3 mps 682 mmHg 13%
    09:00 +36°C° 0 mm 4 mps 682 mmHg 12%
    10:00 +37°C° 0 mm 5 mps 682 mmHg 12%
    11:00 +39°C° 0 mm 6 mps 682 mmHg 11%
    12:00 +40°C° 0 mm 8 mps 682 mmHg 10%
    13:00 +43°C° 0 mm 9 mps 682 mmHg 9%
    14:00 +43°C° 0 mm 9 mps 682 mmHg 10%
    15:00 +42°C° 0 mm 9 mps 681 mmHg 10%
    16:00 +42°C° 0 mm 10 mps 681 mmHg 10%
    17:00 +39°C° 0 mm 8 mps 681 mmHg 12%
    18:00 +38°C° 0 mm 7 mps 681 mmHg 13%
    19:00 +35°C° 0 mm 6 mps 681 mmHg 15%
    20:00 +34°C° 0 mm 5 mps 681 mmHg 17%
    21:00 +32°C° 0 mm 4 mps 681 mmHg 20%
    22:00 +30°C° 0 mm 3 mps 682 mmHg 22%
    23:00 +29°C° 0 mm 3 mps 681 mmHg 24%

    7 June, Sunday

    Time Temperature Precipitation Wind Pressure Humidity
    00:00 +28°C° 0 mm 2 mps 681 mmHg 26%
    01:00 +27°C° 0 mm 2 mps 680 mmHg 28%
    02:00 +26°C° 0 mm 1 mps 680 mmHg 29%
    03:00 +26°C° 0 mm 1 mps 680 mmHg 30%
    04:00 +25°C° 0 mm 1 mps 680 mmHg 31%
    05:00 +27°C° 0 mm 1 mps 680 mmHg 28%
    06:00 +28°C° 0 mm 2 mps 681 mmHg 26%
    07:00 +30°C° 0 mm 2 mps 681 mmHg 23%
    08:00 +31°C° 0 mm 3 mps 681 mmHg 21%
    09:00 +33°C° 0 mm 4 mps 682 mmHg 19%
    10:00 +35°C° 0 mm 5 mps 682 mmHg 17%
    11:00 +36°C° 0 mm 6 mps 681 mmHg 16%
    12:00 +38°C° 0 mm 7 mps 681 mmHg 15%
    13:00 +38°C° 0 mm 8 mps 681 mmHg 14%
    14:00 +38°C° 0 mm 9 mps 680 mmHg 14%
    15:00 +38°C° 0 mm 9 mps 680 mmHg 14%
    16:00 +38°C° 0 mm 9 mps 680 mmHg 13%
    17:00 +35°C° 0 mm 8 mps 679 mmHg 15%
    18:00 +34°C° 0 mm 7 mps 679 mmHg 16%
    19:00 +32°C° 0 mm 6 mps 679 mmHg 18%
    20:00 +30°C° 0 mm 6 mps 679 mmHg 19%
    21:00 +29°C° 0 mm 5 mps 680 mmHg 20%
    22:00 +27°C° 0 mm 5 mps 680 mmHg 22%
    23:00 +26°C° 0 mm 5 mps 679 mmHg 28%
    Show more